Showing default

AETHER-10, 67381

Orbit data source: Space-Track

AETHER-10, 67381 is a payload satellite owned by Kepler Comms (CA) in SSO that was launched on Sun, 11 Jan 2026 UTC via an FALCON 9 launch vehicle from the Air Force Western Test Range (AFWTR). Payload-class satellites include a variety of spacecraft equipped with specific instruments for various scientific and technological missions. These include communications satellites like Starlink; space stations such as the ISS; scientific satellites like the Hubble; Earth observation satellites from companies like Planet Labs, Umbra, and HawkEye 360; GPS; miniature CubeSats for education and research; and military/defense satellites.

Loading next visibility...
Identifier
67381, 2026-004U
Orbit
SSO
Country
Flag of CACA
Related business
Manufacturer
Kepler Comms
Mission
Operational Commercial Communications
Bus & Motor
KEPLER GEN2B, Unknown motor
Mass
300 kg wet, 300 kg dry
Launch date (UTC)
2026-01-11 (4 months ago)
Launch vehicle
FALCON 9
Launch site
Air Force Western Test Range (AFWTR)
Object type
Payload
Rocket body
Debris
Shape & HBR
Box + 2 Pan, 7.6 m
Radar Cross Section
4.448 m²

Expand to show TLE details & history
Last TLE update: 21 hours ago

TLE from 21 hours ago
0 AETHER-10
1 67381U 26004U   26145.89407342  .00000678  00000-0  79296-4 0  9990
2 67381  97.8039 144.9502 0005117 178.2227 181.9009 14.88241544 19976
Epoch: 2026-05-25T21:27Z
TLE epoch observation values (Epoch: 2026-05-25T21:27:27.943Z)
Latitude
-0°
Longitude
-60.39155°
Altitude
610.037 km
Speed
7.552 km/s
True Right ascension
09h 39m 48s
True Declination
0° 00' 00"
Sunlit
Object was in daylight at epoch
Visualization orbit readout
Latitude
Unknown
Longitude
Unknown
Altitude
Unknown
Speed
Unknown
Apparent Right ascension
Unknown
Apparent Declination
Unknown
Sunlit
N/A
Visualization observer readout
Local Sidereal Time
03:36:30
Azimuth
Unknown
Elevation
Unknown
Doppler factor
Unknown
Orbital elements
Apogee altitude
604.026 km
Perigee altitude
596.884 km
Semi-major axis
6,978.592 km
Eccentricity
0.00051
Inclination
97.8039°
RAAN
144.9502°
Arg. of periapsis
178.2227°
True anomaly
181.89896°
Mean anomaly
181.9009°
Eccentric anomaly
181.89993°
Mean motion
3.72299 °/min
Orbital period
96.7 mins
BSTAR
0.000079296
Loading maneuver chart data...
Computing Atmospheric mass density...
Loading historical data...
Loading historical data...
Loading historical data...
Loading historical data...
Loading historical data...
Loading historical data...
Loading historical data...

Documentation

Showing up to 5 results
|